Tracking 23762 objects as of 20-Oct-2021
HD Live streaming from Space Station
objects crossing your sky now

FLOCK 3R 2

Track FLOCK 3R 2 now!
10-day predictions
FLOCK 3R 2 is classified as:


NORAD ID: 43748
Int'l Code: 2018-096AF
Perigee: 456.4 km
Apogee: 479.9 km
Inclination: 97.4 °
Period: 93.8 minutes
Semi major axis: 6839 km
RCS: Unknown
Launch date: November 29, 2018
Source: United States (US)
Launch site: SRIHARIKOTA (SRI)
aabbcc
Your satellite tracking list
Your tracking list is empty




NASA's NSSDC Master Catalog

Two Line Element Set (TLE):
1 43748U 18096AF  21292.50643450  .00013045  00000-0  38482-3 0  9994
2 43748  97.3856  12.8188 0017157 184.3997 175.7098 15.34979343161324
Source of the keplerian elements: AFSPC